EW1179 Weather Reports


Display with metric or nautical units.
time (UTC)temp
F
wind
direction
speed
MPH
gust
MPH
rain 1hr
in
rain 24hr
in
rain mn
in
humidity
%
barometer
mb
20260903143056 49 271 0.0 0.0 0.00 0.00 0.00 88 1014.2
20260903141545 48 271 0.0 0.0 0.00 0.00 0.00 88 1013.9
20260903140038 47 216 0.0 0.0 0.00 0.00 0.00 87 1013.7
20260903134536 47 102 0.0 0.0 0.00 0.00 0.00 86 1013.6
20260903133035 48 76 0.0 0.0 0.00 0.00 0.00 86 1013.6
20260903131534 48 318 0.0 0.0 0.00 0.00 0.00 86 1013.5
20260903130033 48 318 0.0 0.0 0.00 0.00 0.00 86 1013.5
20260903124533 48 318 0.0 0.0 0.00 0.00 0.00 85 1013.5
20260903123030 49 318 0.0 0.0 0.00 0.00 0.00 85 1013.4
20260903121528 49 318 0.0 0.0 0.00 0.00 0.00 85 1013.4
20260903120030 49 318 0.0 0.0 0.00 0.00 0.00 85 1013.5
20260903114528 50 318 0.0 0.0 0.00 0.00 0.00 84 1013.5
20260903113028 50 318 0.0 0.0 0.00 0.00 0.00 84 1013.5
20260903111531 51 318 0.0 0.0 0.00 0.00 0.00 84 1013.5
20260903110020 51 318 0.0 0.0 0.00 0.00 0.00 84 1013.5
20260903104520 51 318 0.0 0.0 0.00 0.00 0.00 83 1013.6
20260903103017 52 318 0.0 0.0 0.00 0.00 0.00 83 1013.6
20260903101524 52 318 0.0 0.0 0.00 0.00 0.00 83 1013.7
20260903100015 53 46 0.0 0.0 0.00 0.00 0.00 82 1013.6
20260903094511 53 46 0.0 0.0 0.00 0.00 0.00 82 1013.7
20260903093010 53 46 0.0 0.0 0.00 0.00 0.00 81 1013.9
20260903091508 54 46 0.0 0.0 0.00 0.00 0.00 80 1013.9
20260903090006 54 46 0.0 0.0 0.00 0.00 0.00 80 1014.0
20260903084507 55 46 0.0 0.0 0.00 0.00 0.00 79 1014.2
20260903083002 55 159 0.0 0.0 0.00 0.00 0.00 78 1014.3
20260903080056 55 103 0.0 0.0 0.00 0.00 0.00 76 1014.3
20260903074556 56 254 0.0 0.0 0.00 0.00 0.00 75 1014.2
20260903073053 56 263 0.0 0.0 0.00 0.00 0.00 76 1014.2
20260903071555 56 287 0.0 0.0 0.00 0.00 0.00 74 1014.1
20260903070048 56 292 0.0 0.0 0.00 0.00 0.00 73 1014.0
20260903064550 57 292 0.0 0.0 0.00 0.00 0.00 73 1014.0
20260903063050 58 292 0.0 0.0 0.00 0.00 0.00 72 1014.1
20260903061546 58 292 0.0 0.0 0.00 0.00 0.00 72 1014.1
20260903060046 59 297 0.0 0.0 0.00 0.00 0.00 72 1014.2
20260903054548 60 134 0.0 0.0 0.00 0.00 0.00 72 1014.3
20260903053045 60 186 0.0 0.0 0.00 0.00 0.00 72 1014.2
20260903051545 61 53 0.0 0.0 0.00 0.00 0.00 72 1014.3
20260903050047 61 43 0.0 0.0 0.00 0.00 0.00 71 1014.3
20260903044547 62 348 0.0 0.0 0.00 0.00 0.00 71 1014.2
20260903043042 62 19 0.0 0.0 0.00 0.00 0.00 71 1014.1
20260903041547 62 159 0.0 2.0 0.00 0.00 0.00 71 1013.9
20260903040042 63 38 0.0 3.0 0.00 0.00 0.00 71 1013.7
20260903034541 63 165 0.0 8.0 0.00 0.00 0.00 72 1013.5
20260903033041 63 298 0.0 7.0 0.00 0.00 0.00 71 1013.1
20260903031546 64 147 0.0 0.0 0.00 0.00 0.00 70 1013.1
20260903030041 64 170 0.0 3.0 0.00 0.00 0.00 70 1013.1
20260903024541 65 101 0.0 5.0 0.00 0.00 0.00 69 1013.0
20260903023039 65 137 0.0 6.0 0.00 0.00 0.00 68 1013.0
20260903021543 66 284 2.0 13.0 0.00 0.00 0.00 66 1012.8
20260903020058 67 225 0.0 5.0 0.00 0.00 0.00 64 1012.9
20260903014539 68 252 1.0 6.0 0.00 0.00 0.00 63 1013.0
20260903013037 69 229 2.0 7.0 0.00 0.00 0.00 63 1013.0
20260903011539 69 227 1.0 11.0 0.00 0.00 0.00 63 1013.0
20260903010035 69 248 0.0 8.0 0.00 0.00 0.00 62 1013.1
20260903004535 70 263 1.0 7.0 0.00 0.00 0.00 62 1013.3
20260903003034 71 244 2.0 11.0 0.00 0.00 0.00 60 1013.2
20260903001544 72 285 1.0 8.0 0.00 0.00 0.00 59 1013.2
20260903000040 72 236 3.0 11.0 0.00 0.00 0.00 57 1013.3
20260902234529 73 263 2.0 8.0 0.00 0.00 0.00 57 1013.4
20260902233029 73 219 3.0 11.0 0.00 0.00 0.00 56 1013.5
20260902231530 74 232 2.0 8.0 0.00 0.00 0.00 53 1013.7
20260902230028 75 229 3.0 13.0 0.00 0.00 0.00 51 1013.8
20260902224524 76 271 2.0 8.0 0.00 0.00 0.00 44 1013.9
20260902223022 76 207 3.0 9.0 0.00 0.00 0.00 46 1014.1
20260902221536 76 203 2.0 11.0 0.00 0.00 0.00 47 1014.3
20260902220021 77 230 3.0 9.0 0.00 0.00 0.00 46 1014.4
20260902214520 77 219 3.0 7.0 0.00 0.00 0.00 45 1014.4
20260902213020 78 307 3.0 9.0 0.00 0.00 0.00 44 1014.6
20260902211518 78 244 2.0 12.0 0.00 0.00 0.00 43 1014.6
20260902210017 78 248 2.0 7.0 0.00 0.00 0.00 43 1014.6
20260902204515 79 237 3.0 6.0 0.00 0.00 0.00 43 1014.7
20260902203014 78 227 0.0 7.0 0.00 0.00 0.00 44 1014.9
20260902201513 79 247 1.0 9.0 0.00 0.00 0.00 43 1014.8
20260902200012 79 91 0.0 3.0 0.00 0.00 0.00 38 1014.9
20260902194513 78 134 0.0 3.0 0.00 0.00 0.00 39 1015.0
20260902193005 76 120 0.0 4.0 0.00 0.00 0.00 41 1015.1
20260902191503 76 77 0.0 3.0 0.00 0.00 0.00 42 1015.4
20260902190059 75 153 0.0 2.0 0.00 0.00 0.00 44 1015.6
20260902184555 74 192 0.0 2.0 0.00 0.00 0.00 45 1015.8
20260902183127 72 97 1.0 5.0 0.00 0.00 0.00 46 1016.1
20260902181547 71 49 0.0 7.0 0.00 0.00 0.00 48 1016.2
20260902180044 70 97 0.0 5.0 0.00 0.00 0.00 51 1016.2
20260902174538 69 316 1.0 4.0 0.00 0.00 0.00 53 1016.2
20260902173050 67 124 0.0 6.0 0.00 0.00 0.00 56 1016.2
20260902171531 67 101 0.0 7.0 0.00 0.00 0.00 57 1016.3
20260902170027 66 64 0.0 4.0 0.00 0.00 0.00 59 1016.3
20260902164522 65 60 0.0 3.0 0.00 0.00 0.00 63 1016.3
20260902163017 63 167 0.0 3.0 0.00 0.00 0.00 66 1016.3
20260902161515 61 32 0.0 0.0 0.00 0.00 0.00 70 1016.2
20260902160010 59 111 0.0 3.0 0.00 0.00 0.00 74 1016.2
20260902154504 57 90 0.0 0.0 0.00 0.00 0.00 79 1016.1
20260902153100 54 102 0.0 0.0 0.00 0.00 0.00 86 1016.2
20260902151556 52 279 0.0 0.0 0.00 0.00 0.00 88 1016.0
20260902150051 50 279 0.0 0.0 0.00 0.00 0.00 89 1016.0
20260902144548 48 279 0.0 0.0 0.00 0.00 0.00 90 1016.1